Date String (YYYY-MM-DD hh:mm:ss) UTC,Instrument flags,absolute air pressure of the measurement (hPa),sample flow rate (lpm),inlet stack bypass flow (lpm),air temperature of the measurement (°C),ambient temperature measured by the external sensor (°C),aerosol sample conditioner tube jacket temperature (°C),OPC LED temperature (°C),internal box temperature (°C),relative humidity of the measurement (%),span deviation,mass concentration of particles derived from Lorenz-Mie calculation of OPC scattering (μg/m³),mass concentration of particles derived from Lorenz-Mie calculation of OPC scattering (μg/m³),mass concentration of particles derived from Lorenz-Mie calculation of OPC scattering (μg/m³)
DateTimeUTC,F1_M11,P_M11,Q1_M11,Q2_M11,T1_M11,T2_M11,T3_M11,T4_M11,T5_M11,U1_M11,ZSPAN_M11,X2_M11,X0_M11,X1_M11
2024-02-12 13:00:00,SystemResetWarning,0827.2,4.99,000.00,018.6,018.3,000.0,026.9,020.3,13.1,0000.0,0001.49,0002.00,0001.35
2024-02-12 13:01:00,SystemResetWarning,0827.2,5.00,000.00,018.6,018.2,000.0,026.9,020.2,13.1,0000.0,0001.47,0001.98,0001.33
2024-02-12 13:02:00,SystemResetWarning,0827.2,4.99,000.00,018.6,018.1,000.0,026.9,020.2,13.3,0000.0,0001.43,0001.95,0001.30
2024-02-12 13:03:00,SystemResetWarning,0827.2,4.99,000.00,018.5,018.1,000.0,026.9,020.2,13.3,0000.0,0001.40,0001.82,0001.28
2024-02-12 13:04:00,SystemResetWarning,0827.2,5.01,000.00,018.5,018.0,000.0,026.9,020.2,13.3,0000.0,0001.38,0001.74,0001.28
2024-02-12 13:05:00,SystemResetWarning,0827.2,5.01,000.00,018.5,017.9,000.0,026.9,020.2,13.2,0000.0,0001.33,0001.56,0001.26
2024-02-12 13:06:00,SystemResetWarning,0827.2,5.00,000.00,018.5,017.9,000.0,026.9,020.1,13.1,0000.0,0001.30,0001.54,0001.22
2024-02-12 13:07:00,SystemResetWarning,0827.2,5.00,000.00,018.5,017.9,000.0,026.9,020.1,13.1,0000.0,0001.27,0001.51,0001.20
2024-02-12 13:08:00,SystemResetWarning,0827.2,5.00,000.00,018.4,017.8,000.0,026.9,020.1,12.8,0000.0,0001.27,0001.54,0001.18
2024-02-12 13:09:00,SystemResetWarning,0827.2,5.00,000.00,018.4,017.8,000.0,026.8,020.0,12.6,0000.0,0001.24,0001.51,0001.16
2024-02-12 13:10:00,SystemResetWarning,0827.2,5.00,000.00,018.4,017.8,000.0,026.8,020.0,12.6,0000.0,0001.23,0001.49,0001.15
2024-02-12 13:11:00,SystemResetWarning,0827.2,5.00,000.00,018.4,017.7,000.0,026.8,020.0,12.6,0000.0,0001.24,0001.53,0001.13
2024-02-12 13:12:00,SystemResetWarning,0827.2,4.99,000.00,018.3,017.7,000.0,026.8,020.0,12.5,0000.0,0001.25,0001.64,0001.13
2024-02-12 13:13:00,SystemResetWarning,0827.2,5.01,000.00,018.3,017.7,000.0,026.8,020.0,12.3,0000.0,0001.26,0001.66,0001.13
2024-02-12 13:14:00,SystemResetWarning,0827.2,5.01,000.00,018.3,017.7,000.0,026.8,020.0,12.0,0000.0,0001.27,0001.68,0001.14
2024-02-12 13:15:00,SystemResetWarning,0827.2,5.00,000.00,018.3,017.6,000.0,026.8,020.0,12.1,0000.0,0001.27,0001.67,0001.14
2024-02-12 13:16:00,SystemResetWarning,0827.2,4.99,000.00,018.3,017.6,000.0,026.9,020.0,12.2,0000.0,0001.29,0001.72,0001.16
2024-02-12 13:17:00,SystemResetWarning,0827.2,4.99,000.00,018.3,017.6,000.0,026.9,020.0,12.1,0000.0,0001.35,0001.83,0001.18
2024-02-12 13:18:00,SystemResetWarning,0827.2,5.01,000.00,018.3,017.6,000.0,026.9,020.0,12.0,0000.0,0001.40,0002.01,0001.21
2024-02-12 13:19:00,SystemResetWarning,0827.2,5.00,000.00,018.3,017.6,000.0,026.9,020.0,12.0,0000.0,0001.42,0001.99,0001.25
2024-02-12 13:20:00,SystemResetWarning,0827.2,5.01,000.00,018.3,017.6,000.0,026.9,020.0,12.0,0000.0,0001.49,0002.15,0001.29
2024-02-12 13:21:00,SystemResetWarning,0827.2,4.99,000.00,018.3,017.6,000.0,026.8,020.0,12.4,0000.0,0001.55,0002.26,0001.32
2024-02-12 13:22:00,SystemResetWarning,0827.2,4.99,000.00,018.2,017.6,000.0,026.9,020.0,12.3,0000.0,0001.59,0002.31,0001.35
2024-02-12 13:23:00,SystemResetWarning,0827.2,4.99,000.00,018.2,017.6,000.0,026.9,020.0,11.8,0000.0,0001.65,0002.46,0001.39
2024-02-12 13:24:00,SystemResetWarning,0827.3,5.01,000.00,018.2,017.6,000.0,026.8,020.0,11.7,0000.0,0001.71,0002.62,0001.42
2024-02-12 13:25:00,SystemResetWarning,0827.3,5.01,000.00,018.3,017.9,000.0,026.9,020.2,11.7,0000.0,0001.83,0003.04,0001.45
2024-02-12 13:26:00,SystemResetWarning,0827.4,5.00,000.00,018.5,018.6,000.0,027.0,020.7,11.6,0000.0,0001.99,0003.50,0001.48
2024-02-12 13:27:00,SystemResetWarning,0827.4,4.99,000.00,018.6,018.9,000.0,027.0,020.8,11.5,0000.0,0002.09,0003.81,0001.49
2024-02-12 13:28:00,SystemResetWarning,0827.4,4.99,000.00,018.7,018.8,000.0,027.0,020.6,11.5,0000.0,0002.18,0004.67,0001.50
2024-02-12 13:29:00,SystemResetWarning,0827.4,5.00,000.00,018.6,018.6,000.0,026.9,020.5,11.5,0000.0,0002.41,0006.91,0001.55
2024-02-12 13:30:00,SystemResetWarning,0827.4,5.00,000.00,018.6,018.5,000.0,026.9,020.4,11.5,0000.0,0002.74,0007.91,0001.59
2024-02-12 13:31:00,SystemResetWarning,0827.4,5.00,000.00,018.6,018.4,000.0,026.9,020.3,11.7,0000.0,0003.02,0009.73,0001.63
2024-02-12 13:32:00,SystemResetWarning,0827.3,5.00,000.00,018.6,018.2,000.0,026.9,020.2,11.6,0000.0,0003.22,0012.14,0001.67
2024-02-12 13:33:00,SystemResetWarning,0827.3,5.00,000.00,018.5,018.1,000.0,026.9,020.2,11.6,0000.0,0003.44,0014.21,0001.71
2024-02-12 13:34:00,SystemResetWarning,0827.3,5.00,000.00,018.5,018.0,000.0,026.8,020.1,11.6,0000.0,0003.68,0016.56,0001.75
2024-02-12 13:35:00,SystemResetWarning,0827.3,5.00,000.00,018.5,018.0,000.0,026.8,020.1,11.7,0000.0,0003.82,0018.23,0001.78
2024-02-12 13:36:00,SystemResetWarning,0827.3,5.00,000.00,018.5,017.9,000.0,026.8,020.1,11.6,0000.0,0003.92,0019.37,0001.80
2024-02-12 13:37:00,SystemResetWarning,0827.3,5.00,000.00,018.4,017.9,000.0,026.8,020.0,11.7,0000.0,0004.02,0021.43,0001.83
2024-02-12 13:38:00,SystemResetWarning,0827.3,5.01,000.00,018.4,017.8,000.0,026.8,020.0,11.7,0000.0,0004.13,0023.30,0001.86
2024-02-12 13:39:00,SystemResetWarning,0827.3,5.01,000.00,018.4,017.8,000.0,026.8,020.0,11.7,0000.0,0004.25,0024.37,0001.89
2024-02-12 13:40:00,SystemResetWarning,0827.3,5.00,000.00,018.4,017.8,000.0,026.8,020.0,11.7,0000.0,0004.36,0026.12,0001.89
2024-02-12 13:41:00,SystemResetWarning,0827.2,5.00,000.00,018.4,017.8,000.0,026.8,020.0,11.7,0000.0,0004.34,0026.83,0001.90
2024-02-12 13:42:00,SystemResetWarning,0827.2,5.00,000.00,018.3,017.8,000.0,026.8,020.0,11.7,0000.0,0004.34,0027.40,0001.89
2024-02-12 13:43:00,SystemResetWarning,0827.3,4.99,000.00,018.3,017.7,000.0,026.8,020.0,11.8,0000.0,0004.29,0026.55,0001.87
2024-02-12 13:44:00,SystemResetWarning,0827.2,4.99,000.00,018.3,017.7,000.0,026.8,020.0,11.9,0000.0,0004.32,0026.02,0001.88
2024-02-12 13:45:00,SystemResetWarning,0827.2,5.01,000.00,018.3,017.7,000.0,026.8,020.0,11.9,0000.0,0004.23,0024.29,0001.87
2024-02-12 13:46:00,SystemResetWarning,0827.2,5.01,000.00,018.3,017.7,000.0,026.8,020.0,12.0,0000.0,0004.22,0024.24,0001.88
2024-02-12 13:47:00,SystemResetWarning,0827.2,5.01,000.00,018.3,017.7,000.0,026.8,020.0,12.0,0000.0,0004.25,0025.00,0001.89
2024-02-12 13:48:00,SystemResetWarning,0827.2,5.00,000.00,018.3,017.7,000.0,026.8,020.0,12.0,0000.0,0004.28,0026.13,0001.90
2024-02-12 13:49:00,SystemResetWarning,0827.2,4.99,000.00,018.3,017.7,000.0,026.8,020.0,12.0,0000.0,0004.29,0027.81,0001.91
2024-02-12 13:50:00,SystemResetWarning,0827.2,4.99,000.00,018.3,017.7,000.0,026.8,020.0,11.9,0000.0,0004.25,0028.08,0001.89
2024-02-12 13:51:00,SystemResetWarning,0827.2,5.01,000.00,018.2,017.7,000.0,026.8,020.0,11.9,0000.0,0004.12,0026.66,0001.87
2024-02-12 13:52:00,SystemResetWarning,0827.3,5.00,000.00,018.2,017.7,000.0,026.8,020.0,11.9,0000.0,0004.03,0026.40,0001.84
2024-02-12 13:53:00,SystemResetWarning,0827.2,5.01,000.00,018.2,017.7,000.0,026.8,020.0,11.9,0000.0,0003.95,0025.62,0001.80
2024-02-12 13:54:00,SystemResetWarning,0827.2,5.00,000.00,018.2,017.6,000.0,026.8,020.0,11.9,0000.0,0003.94,0024.44,0001.79
2024-02-12 13:55:00,SystemResetWarning,0827.3,4.99,000.00,018.2,017.6,000.0,026.8,020.0,11.9,0000.0,0003.83,0023.79,0001.76
2024-02-12 13:56:00,SystemResetWarning,0827.3,5.00,000.00,018.3,017.9,000.0,026.9,020.2,11.9,0000.0,0003.72,0023.18,0001.76
2024-02-12 13:57:00,SystemResetWarning,0827.3,5.00,000.00,018.5,018.7,000.0,027.0,020.7,11.7,0000.0,0003.70,0023.04,0001.75
2024-02-12 13:58:00,SystemResetWarning,0827.3,4.98,000.00,018.7,018.9,000.0,027.0,020.8,11.6,0000.0,0003.62,0021.67,0001.72
2024-02-12 13:59:00,SystemResetWarning,0827.3,5.00,000.00,018.7,018.8,000.0,026.9,020.7,11.6,0000.0,0003.58,0019.56,0001.70
